sat.trackr.live / text

‹ back to catalog

STARLINK-30336

NORAD 57703 · 2023-129F

PAYLOAD ACTIVE UNKNOWN

§ Identity

Operator
Country
US
Launch date
2023-08-27
Launch site
AFETR
Launch vehicle
Mass (kg)
RCS (m²)

Purposes: comms

External: N2YO · Heavens-Above · Gunter

§ Orbital elements

Epoch: 2026-05-25T01:37:14.587680Z

Period
94.27 min
Inclination
43.0032°
Eccentricity
0.0001293
Mean motion
15.27559506 rev/d
Perigee alt
482.2 km
Apogee alt
484.0 km
Semi-major
6,861.2 km
B*
1.9999e-4
RAAN
46.5632°
Arg perigee
261.0871°
Mean anomaly
98.9834°
Rev number
15,222

§ Raw data

STARLINK-303361 57703U 23129F   26145.06752995  .00005242  00000+0  19999-3 0  99922 57703  43.0032  46.5632 0001293 261.0871  98.9834 15.27559506152220

JSON: /api/v1/satellites/57703 · /tle

For live sub-satellite position, see the globe view (requires WebGL).

§ Visibility from observer

Set your observer location to see the next 7 days of passes ≥ 10°. The values pass through the URL so the page stays shareable.

No JS? Fill the form by hand. The geolocation button needs JavaScript.